TimePDT,TemperatureF,Dew PointF,Humidity,Sea Level PressureIn,VisibilityMPH,Wind Direction,Wind SpeedMPH,Gust SpeedMPH,PrecipitationIn,Events,Conditions,WindDirDegrees,DateUTC
12:52 AM,51.1,37.9,61,30.04,10.0,WSW,6.9,-,N/A,,Clear,250,2013-04-03 07:52:00
1:52 AM,50.0,37.0,61,30.05,10.0,Variable,4.6,-,N/A,,Clear,0,2013-04-03 08:52:00
2:52 AM,48.9,37.0,64,30.04,10.0,WSW,4.6,-,N/A,,Clear,240,2013-04-03 09:52:00
3:52 AM,43.0,34.0,71,30.06,10.0,Calm,Calm,-,N/A,,Clear,0,2013-04-03 10:52:00
4:52 AM,46.9,35.1,63,30.06,10.0,West,8.1,-,N/A,,Clear,260,2013-04-03 11:52:00
5:52 AM,41.0,33.1,73,30.06,10.0,Calm,Calm,-,N/A,,Clear,0,2013-04-03 12:52:00
6:52 AM,41.0,34.0,76,30.09,10.0,SSE,4.6,-,N/A,,Clear,150,2013-04-03 13:52:00
7:52 AM,44.1,35.1,71,30.10,10.0,SE,3.5,-,N/A,,Clear,130,2013-04-03 14:52:00
8:52 AM,52.0,37.9,59,30.11,10.0,South,3.5,-,N/A,,Clear,180,2013-04-03 15:52:00
9:52 AM,57.0,36.0,45,30.10,10.0,Calm,Calm,-,N/A,,Clear,0,2013-04-03 16:52:00
10:52 AM,61.0,37.0,41,30.09,10.0,North,4.6,-,N/A,,Clear,10,2013-04-03 17:52:00
11:52 AM,64.0,35.1,34,30.09,10.0,SW,4.6,-,N/A,,Clear,220,2013-04-03 18:52:00
12:52 PM,66.0,36.0,33,30.07,10.0,WSW,6.9,-,N/A,,Clear,240,2013-04-03 19:52:00
1:52 PM,66.9,33.1,28,30.07,10.0,WSW,5.8,-,N/A,,Clear,250,2013-04-03 20:52:00
2:52 PM,68.0,35.1,30,30.05,10.0,WSW,5.8,-,N/A,,Clear,240,2013-04-03 21:52:00
3:52 PM,66.9,36.0,32,30.03,10.0,SSE,5.8,-,N/A,,Clear,160,2013-04-03 22:52:00
4:52 PM,66.9,34.0,30,30.02,10.0,SSW,4.6,-,N/A,,Clear,210,2013-04-03 23:52:00
5:52 PM,66.9,35.1,31,30.02,10.0,SSE,3.5,-,N/A,,Clear,160,2013-04-04 00:52:00
6:52 PM,64.0,37.0,37,30.00,10.0,South,5.8,-,N/A,,Clear,170,2013-04-04 01:52:00
7:52 PM,62.1,37.0,39,29.99,10.0,ESE,5.8,-,N/A,,Clear,110,2013-04-04 02:52:00
8:52 PM,57.9,37.0,46,29.99,10.0,SSE,4.6,-,N/A,,Clear,150,2013-04-04 03:52:00
9:52 PM,57.0,36.0,45,29.99,10.0,ESE,5.8,-,N/A,,Clear,120,2013-04-04 04:52:00
10:52 PM,55.0,36.0,49,29.97,10.0,ESE,3.5,-,N/A,,Partly Cloudy,110,2013-04-04 05:52:00
11:52 PM,52.0,37.0,57,29.97,10.0,WNW,3.5,-,N/A,,Mostly Cloudy,290,2013-04-04 06:52:00